Hourly Data Report for July 04, 2004

TORONTO CITY
ONTARIO

43°40'00.000" N
79°24'00.000" W
112.50 m
6158355
71508
XTO

Download Data

Hourly Data (July 2004)
Hourly Data Report for July 4, 2004
TIME
LST
Temp Definition
°C
Dew Point Definition
°C
Rel Hum Definition
%
Precip. Amount Definition
mm

Wind Dir Definition
10's deg

Wind Spd Definition
km/h
Visibility Definition
km
Stn Press Definition
kPa
Hmdx Definition


Wind Chill Definition


Weather Definition


00:00 19.7 13.1 66   LegendMM LegendMM LegendMM 99.91     LegendNANA
01:00 19.7 13.3 67   LegendMM LegendMM LegendMM 99.90     LegendNANA
02:00 19.4 13.4 68   LegendMM LegendMM LegendMM 99.85     LegendNANA
03:00 19.0 13.7 71   LegendMM LegendMM LegendMM 99.76     LegendNANA
04:00 18.7 14.0 74   LegendMM LegendMM LegendMM 99.75     LegendNANA
05:00 18.7 14.6 77   LegendMM LegendMM LegendMM 99.75     LegendNANA
06:00 19.0 14.9 77   LegendMM LegendMM LegendMM 99.75     LegendNANA
07:00 19.4 15.3 77   LegendMM LegendMM LegendMM 99.73     LegendNANA
08:00 18.0 16.5 91   LegendMM LegendMM LegendMM 99.70     LegendNANA
09:00 19.9 17.8 88   LegendMM LegendMM LegendMM 99.63     LegendNANA
10:00 21.9 18.7 82   LegendMM LegendMM LegendMM 99.59 28   LegendNANA
11:00 23.6 19.5 78   LegendMM LegendMM LegendMM 99.54 31   LegendNANA
12:00 24.7 20.3 77   LegendMM LegendMM LegendMM 99.47 33   LegendNANA
13:00 24.7 20.0 75   LegendMM LegendMM LegendMM 99.38 32   LegendNANA
14:00 24.0 19.8 77   LegendMM LegendMM LegendMM 99.31 31   LegendNANA
15:00 24.0 19.9 78   LegendMM LegendMM LegendMM 99.18 31   LegendNANA
16:00 22.8 19.4 81   LegendMM LegendMM LegendMM 99.08 30   LegendNANA
17:00 23.3 20.6 85   LegendMM LegendMM LegendMM 99.24 31   LegendNANA
18:00 21.9 21.3 96   LegendMM LegendMM LegendMM 99.08 31   LegendNANA
19:00 21.7 20.7 94   LegendMM LegendMM LegendMM 99.08 30   LegendNANA
20:00 21.6 20.9 96   LegendMM LegendMM LegendMM 99.08 30   LegendNANA
21:00 21.9 21.2 96   LegendMM LegendMM LegendMM 99.11 30   LegendNANA
22:00 21.9 21.2 96   LegendMM LegendMM LegendMM 99.10 30   LegendNANA
23:00 20.7 20.1 96   LegendMM LegendMM LegendMM 99.11 28   LegendNANA

Notes on Data Quality.

Legend

  • E = Estimated
  • M = Missing
  • NA = Not Available*
  • [empty] = Indicates an unobserved value
Date modified: